星链-34786 (STARLINK-34786)

导读

STARLINK-34786是美国太空探索技术公司星链星座的卫星,星链计划旨在构建全球卫星互联网星座,为全球提供高速互联网服务。该卫星于2025年8月30日发射升空,入轨后将参与星座组网,补充完善星链星座的服务覆盖能力,进一步提升星链系统在全球通信服务方面的稳定性与覆盖范围。

基本信息
目录编号:
65391
目录名称:
STARLINK-34786
国际标识:
2025-191N
轨道中心:
EARTH
卫星名称:
星链-34786
卫星全名:
星链-34786 (STARLINK-34786)
卫星状态:
在轨 (已飞行287 天)
发射日期:
2025-08-30 UTC
国别 :
美国 (US)
星等 :
--
轨道信息
数据来源 国际轨道数据
星历时间: 2026-06-13T12:46:01+0800
13小时前
查看轨道信息
半长轴: 6927.608km
偏心率: 0.0002103
轨道倾角: 97.368°
近地点辐角 84.143°
升交点赤经 34.848°
平近点角 276.004°
近地点: 548.014km
远地点: 550.928km
周期: 95.639分钟
每日圈数: 15.056634
详细信息
固有亮度:
5
最大亮度:
2.5
卫星平台:
Starlink V1.0
覆盖范围:
全球
运营商:
太空探索技术公司
运营商所在国:
美国
制造商(研发单位):
太空探索技术公司
制造商所在国:
美国
使用方式:
暂无
卫星简介
Starlink 计划是 SpaceX 推出的全球卫星互联网项目,通过发射低轨道卫星,为全球尤其是偏远地区提供高速、低延迟的互联网服务。自 2019 年起,Starlink 已部署数千颗卫星,旨在缩小全球数字鸿沟,推动互联网普及。该项目还为军事、航空等行业提供通信支持,带来广泛经济效益。
2D轨道图
3D轨道图
轨道高度分析图
轨道倾角分析图
轨道综合分析图
查看轨道综合分析图